Weather Roundup
Issued by NWS

Home | Current Version | Previous Version | Graphics & Text | Print | Product List | Glossary Off
Versions: 1 2 3 4 5 6 7 8 9 10 11 12 13 14 15 16 17 18 19 20 21 22 23 24 25 26 27 28 29 30 31 32 33 34 35 36 37 38 39 40 41 42 43 44 45 46 47 48 49 50

713
NZUS93 KARX 100259
HRRWXR

CURRENT HOURLY OBSERVATIONS ACROSS
MUCH OF THE UPPER MISSISSIPPI VALLEY
NATIONAL WEATHER SERVICE LA CROSSE WI
900 PM CST TUE FEB 09 2016


...SOUTHEAST MINNESOTA...


CITY           SKY/WX    TMP DP  RH WIND       PRES   REMARKS
ROCHESTER      CLEAR      7  -3  64 NW15      30.06S WCI -10
ROCHESTER/MAYO FAIR      11  -1  57 NW14G25   30.08S WCI  -5
WINONA         CLEAR     12   1  62 NW13      30.11S WCI  -3
AUSTIN         CLOUDY     9   0  66 NW12      30.08S WCI  -6
ALBERT LEA     CLEAR     10   1  67 NW12G17   30.10F WCI  -4
DODGE CENTER   PTCLDY     7  -2  66 NW12      30.07F WCI  -9
PRESTON        CLEAR      5  -4  66 NW13      30.06S WCI -12
OWATONNA       CLEAR      7  -2  66 NW7       30.11S WCI  -5
FARIBAULT        N/A      9   0  66 W5        30.12F WCI   0
$$

...ELSEWHERE IN MINNESOTA...


CITY           SKY/WX    TMP DP  RH WIND       PRES   REMARKS
MINNEAPOLIS    PTCLDY    12  -2  53 N12       30.14F WCI  -2
INTNL FALLS    CLOUDY    -6 -10  83 N7        30.16R WCI -20
DULUTH         CLEAR      1  -8  66 N14G22    30.05S WCI -17
RED WING       CLEAR     10  -6  48 NW6       30.11S WCI   1
REDWOOD FALLS  MOCLDY    14   6  70 NW9       30.18F WCI   2
MANKATO        CLEAR     10   1  67 NW7       30.13F WCI   0
WORTHINGTON    CLOUDY    18   9  68 NW9       30.15F WCI   6
FAIRMONT       CLEAR     10   3  72 NW8       30.14S WCI  -1
$$

...SOUTHWEST WISCONSIN...


CITY           SKY/WX    TMP DP  RH WIND       PRES   REMARKS
LA CROSSE      CLEAR      7  -4  60 NW10      30.08R WCI  -8
PRAIRIE DU CHI CLEAR     10  -1  61 W9        30.08R WCI  -4
BOSCOBEL       CLEAR     11  -1  58 NW3       30.07R
LONE ROCK      PTCLDY    11  -2  56 NW8       30.04S WCI  -1
PLATTEVILLE    CLEAR     10   0  65 NW8       30.01S WCI  -3
FORT MC COY    CLEAR      0  -4  82 CALM      30.06R
VIROQUA        FAIR       5  -3  68 NW7       30.00R WCI  -7
WIS DELLS      CLOUDY    10  -1  62 NW7       29.99S WCI  -1
$$

...ELSEWHERE IN WISCONSIN...


CITY           SKY/WX    TMP DP  RH WIND       PRES   REMARKS
MILWAUKEE      LGT SNOW  16  10  77 NW14      29.92S WCI   2
MADISON        PTCLDY    11  -1  58 NW9       29.97F WCI  -2
GREEN BAY      FLURRIES  13   6  74 NW9       29.94S WCI   1
EAU CLAIRE     NOT AVBL
BLACK RVR FLS  FAIR      -6 -12  75 CALM      30.05R
MEDFORD        CLOUDY     8   0  68 NW16      29.96R WCI  -9
WAUSAU         CLOUDY    11   0  61 NW15      29.94F WCI  -5
WIS RAPIDS     CLOUDY    10  -2  58 N16G23    30.01R WCI  -7
MARSHFIELD     CLOUDY    10  -1  61 N10       29.97S WCI  -4
RICE LAKE      CLEAR      8  -6  54 NW9       30.09S WCI  -6
$$

...NORTHEAST IOWA...


CITY           SKY/WX    TMP DP  RH WIND       PRES   REMARKS
WATERLOO       CLEAR     10   0  63 NW14      30.12R WCI  -6
DUBUQUE        CLEAR     10   1  67 NW13      30.03R WCI  -5
DECORAH        CLEAR      9  -4  56 NW6       30.05S WCI  -1
MASON CITY     CLEAR      7   0  73 NW13      30.13S WCI  -9
CHARLES CITY   CLEAR      9   0  66 NW14      30.10S WCI  -8
OELWEIN        CLEAR      9   0  66 NW20      30.08S WCI -11
$$

...ELSEWHERE IN IOWA...


CITY           SKY/WX    TMP DP  RH WIND       PRES   REMARKS
DES MOINES     CLEAR     16   7  67 NW9       30.18S WCI   4
IOWA CITY      CLEAR     13   4  67 NW10      30.14R WCI   0
FORT DODGE     CLEAR     10   1  67 NW3       30.17S
MARSHALLTOWN   CLEAR     11   5  77 NW14      30.14R WCI  -5
CEDAR RAPIDS   CLEAR     10   4  76 NW14      30.10R WCI  -6
$$

...NORTHERN ILLINOIS...


CITY           SKY/WX    TMP DP  RH WIND       PRES   REMARKS
CHICAGO-OHARE  LGT SNOW  15  10  80 W13       29.94S WCI   1
CHICAGO-MIDWAY FLURRIES  16   7  67 NW13      29.95S WCI   2
MOLINE         CLEAR     13   3  64 NW12G21   30.08S WCI  -1
ROCKFORD       FLURRIES  15   4  61 NW10      30.00S WCI   2
PEORIA         CLOUDY    14   3  61 NW10G20   30.06S WCI   1
$$

NOTE: "FAIR" INDICATES FEW OR NO CLOUDS BELOW 12,000 FEET WITH NO
SIGNIFICANT WEATHER AND/OR OBSTRUCTIONS TO VISIBILITY. WIND
SPEEDS ARE IN MILES-PER-HOUR.




USA.gov is the U.S. government's official web portal to all federal, state and local government web resources and services.